Regional Weather Roundup
Issued by NWS

Home | Current Version | Previous Version | Text Only | Print | Product List | Glossary Off
Versions: 1 2 3 4 5 6 7 8 9 10 11 12 13 14 15 16 17 18 19 20 21 22 23 24 25 26 27 28 29 30 31 32 33 34 35 36 37 38 39 40 41 42 43 44 45 46 47 48 49 50

000
ASUS43 KLSX 040610
RWRMO

WEATHER SUMMARY FOR MISSOURI
NATIONAL WEATHER SERVICE SPRINGFIELD MO
100 AM CDT FRI SEP 04 2015

NOTE: "FAIR" INDICATES FEW OR NO CLOUDS BELOW 12,000 FEET WITH NO
       SIGNIFICANT WEATHER AND/OR OBSTRUCTIONS TO VISIBILITY.
       CURRENT SKY AND/OR WEATHER CONDITIONS ARE NOT AVAILABLE FOR
       CHILLICOTHE AND FARMINGTON.

MOZ001>031-035>038-043-044-053-054-040700-
...NORTHERN AND WESTERN MISSOURI...

CITY           SKY/WX    TMP DP  RH WIND       PRES   REMARKS
KANSAS CTY INT MOCLDY    74  67  78 S8        29.93R
6HR MIN TEMP:  73; 6HR MAX TEMP:  86;

KANSAS C DTWN  MOCLDY    79  68  69 SW6       29.92R
6HR MIN TEMP:  79; 6HR MAX TEMP:  88;

LEE`S SUMMIT   MOCLDY    77  67  71 S7        29.95R
6HR MIN TEMP:  77; 6HR MAX TEMP:  86;

ST JOSEPH      PTCLDY    73  69  87 S5        29.91S
6HR MIN TEMP:  73; 6HR MAX TEMP:  85;

CHILLICOTHE      N/A     73  69  87 CALM      29.95R
6HR MIN TEMP:  73; 6HR MAX TEMP:  87;

KIRKSVILLE     CLEAR     72  67  84 S5        29.96R
6HR MIN TEMP:  72; 6HR MAX TEMP:  85;


$$
MOZ066>068-077>081-088>096-101>105-040700-
...SOUTHWEST MISSOURI...

CITY           SKY/WX    TMP DP  RH WIND       PRES   REMARKS
SPRINGFIELD    CLEAR     74  68  81 SE7       29.98R
6HR MIN TEMP:  73; 6HR MAX TEMP:  85;

JOPLIN         CLEAR     76  68  76 SE8       29.96R
6HR MIN TEMP:  73; 6HR MAX TEMP:  85;


$$
MOZ032>034-039>042-045>050-055>058-069>072-040700-
...CENTRAL MISSOURI...

CITY           SKY/WX    TMP DP  RH WIND       PRES   REMARKS
COLUMBIA       CLEAR     75  69  81 SE6       29.97R
6HR MIN TEMP:  74; 6HR MAX TEMP:  86;

JEFFERSON CITY CLEAR     72  69  90 SE6       29.95R
6HR MIN TEMP:  72; 6HR MAX TEMP:  90;

ROLLA          CLEAR     73  68  84 S6        29.98R
6HR MIN TEMP:  71; 6HR MAX TEMP:  85;

SEDALIA        CLEAR     73  68  84 S7        29.97R
6HR MIN TEMP:  73; 6HR MAX TEMP:  87;

WHITEMAN AFB   PTCLDY    73  68  82 S5        29.94R
WARRENSBURG    PTCLDY    72  68  88 SE3       29.94S
OSAGE BEACH    CLEAR     72  66  83 S3        29.98R

$$
MOZ051-052-059>065-040700-
...EAST CENTRAL MISSOURI...

CITY           SKY/WX    TMP DP  RH WIND       PRES   REMARKS
ST LOUIS INTL  CLEAR     79  69  71 CALM      29.97R
6HR MIN TEMP:  79; 6HR MAX TEMP:  90;

SPIRIT OF STL  CLEAR     72  71  97 CALM      29.95R
6HR MIN TEMP:  72; 6HR MAX TEMP:  83;

ST CHARLES     CLEAR     74  72  93 CALM      29.95R
6HR MIN TEMP:  73; 6HR MAX TEMP:  88;


$$
MOZ072>076-082>087-097>100-106>115-040700-
...SOUTH CENTRAL AND SOUTHEAST MISSOURI...

CITY           SKY/WX    TMP DP  RH WIND       PRES   REMARKS
CAPE GIRARDEAU CLEAR     69  68  96 CALM      29.96S FOG
6HR MIN TEMP:  69; 6HR MAX TEMP:  86;

FARMINGTON     CLEAR     72  70  94 CALM      30.01S
6HR MIN TEMP:  72; 6HR MAX TEMP:  84;

POPLAR BLUFF   CLEAR     71  69  93 CALM      29.96R
6HR MIN TEMP:  69; 6HR MAX TEMP:  84;

WEST PLAINS    CLEAR     70  67  90 CALM      30.02R
6HR MIN TEMP:  69; 6HR MAX TEMP:  84;


$$



USA.gov is the U.S. government's official web portal to all federal, state and local government web resources and services.